Vorticity
nan nan nan nan nan nan nan nan nan nan nan nan nan nan nan nan nan nan nan nan nan nan
nan 9 8 10 11 8 7 8 6 8 11 13 18 16 11 8 10 9 9 8 10 nan
nan 9 10 11 9 9 8 8 10 11 8 12 18 20 12 7 11 8 7 10 9 nan
nan 9 11 10 9 9 9 10 9 10 11 10 14 23 17 10 9 8 8 9 9 nan
nan 10 10 8 9 9 11 11 12 9 10 10 13 23 17 11 10 10 8 8 7 nan
nan 9 9 9 10 11 11 10 11 11 10 10 13 17 20 15 10 10 9 9 8 nan
nan 9 10 10 9 10 11 11 11 11 10 11 12 14 21 19 12 9 10 10 9 nan
nan 10 10 10 10 11 12 12 10 10 12 13 14 10 13 18 16 10 10 11 11 nan
nan 10 10 9 10 11 11 11 11 13 12 14 10 3 12 18 21 14 10 9 11 nan
nan 9 9 11 10 9 11 12 12 11 11 14 10 9 13 17 22 15 13 11 9 nan
nan 9 10 9 9 10 11 12 12 12 12 15 14 11 12 23 19 12 16 14 11 nan
nan 9 9 9 9 10 10 11 12 11 12 13 13 18 23 21 9 12 14 14 12 nan
nan 10 8 9 11 11 10 11 12 10 9 11 13 18 23 15 12 11 8 12 20 nan
nan nan nan nan nan nan nan nan nan nan nan nan nan nan nan nan nan nan nan nan nan nan
CAPE
1 6 5 5 5 2 3 5 4 4 5 3 3 0 0 0 0 0 0 0 0 0
3 2 3 3 3 5 2 8 5 3 5 3 1 4 0 0 0 0 0 0 0 0
3 2 3 3 3 2 4 1 4 3 4 4 6 9 0 0 0 0 0 0 0 0
0 1 2 2 2 2 4 2 3 4 4 4 5 7 0 0 0 0 0 0 0 0
0 1 1 1 1 2 2 2 2 4 3 4 4 4 0 0 0 0 0 0 0 0
0 0 0 0 1 2 2 2 1 3 2 3 4 7 2 0 0 0 0 0 0 0
0 0 0 0 0 0 0 2 1 2 2 3 4 5 2 0 0 0 0 0 0 0
0 0 0 0 0 0 0 1 1 1 1 2 4 5 3 0 0 0 0 0 0 0
0 0 0 0 0 0 0 0 1 0 1 0 3 8 6 3 0 0 0 0 0 0
0 0 0 0 0 0 0 0 0 0 1 1 2 10 6 5 0 0 0 0 0 0
0 0 0 0 0 0 0 0 0 0 0 1 1 13 6 7 1 1 0 0 0 0
0 0 0 0 0 0 0 0 0 1 0 0 0 12 5 3 4 0 0 0 0 0
0 0 0 0 0 0 0 0 1 0 0 5 0 14 8 1 0 0 0 0 0 1
0 0 0 0 0 0 0 0 0 0 0 0 2 2 35 14 0 0 0 0 0 0